Regional Weather Roundup
Issued by NWS

Home | Current Version | Previous Version | Graphics & Text | Print | Product List | Glossary On
Versions: 1 2 3 4 5 6 7 8 9 10 11 12 13 14 15 16 17 18 19 20 21 22 23 24 25 26 27 28 29 30 31 32 33 34 35 36 37 38 39 40 41 42 43 44 45 46 47 48 49 50
000
ASUS43 KDTX 241310
RWRMI
MICHIGAN HOURLY REGIONAL WEATHER ROUNDUP
NATIONAL WEATHER SERVICE DETROIT/PONTIAC MI
800 AM EST MON NOV 24 2014

NOTE: "FAIR" INDICATES FEW OR NO CLOUDS BELOW 12,000 FEET WITH NO
SIGNIFICANT WEATHER AND/OR OBSTRUCTION TO VISIBILITY.

MIZ047>049-052>055-059>063-066>070-074>076-081>083-241400-
SOUTHEAST LOWER MICHIGAN

CITY           SKY/WX    TMP DP  RH WIND       PRES   REMARKS
ADRIAN         LGT RAIN  54  52  93 SW20G26   29.14F
ALMA           LGT RAIN  50  49  98 SW10G18   29.06R
ANN ARBOR      CLOUDY    55  52  89 SW13G21   29.13F
BAD AXE        LGT RAIN  52  52  99 SW13G23   29.06R
CARO           CLOUDY    52  50  93 S18       29.06R
DETROIT CITY   CLOUDY    57  52  83 S13       29.16R
DETROIT        CLOUDY    56  52  86 S20G28    29.15S
FLINT          CLOUDY    54  50  86 SW13G21   29.10S
GROSSE ILE     CLOUDY    45  43  93 S13       29.15S FOG
HILLSDALE      CLOUDY    54  54  99 S12G18    29.12F
HOWELL         DRIZZLE   51  51  98 S13G20    29.10S

CITY           SKY/WX    TMP DP  RH WIND       PRES   REMARKS
LAMBERTVILLE   LGT RAIN  55  52  88 S16G24    29.18R
LANSING        LGT RAIN  51  49  92 SW13      29.09S VSB 1
LAPEER         HVY RAIN  52  50  92 SW15G22   29.10R
MASON          RAIN      51  50  96 S5        29.10S
MONROE         RAIN      57  54  88 S13G18    29.14F
MT. CLEMENS    CLOUDY    55  55 100 SW14      29.13R
PONTIAC        CLOUDY    53  50  89 S10G21    29.12R
PORT HOPE        N/A     53  50  89 SW13G22   29.02R
PORT HURON     CLOUDY    54  52  94 S16G25    29.14R
TRI CITIES     LGT RAIN  52  49  89 SW15G25   29.06R
TROY           CLOUDY    57  52  82 S13G26    29.15S
SAGINAW HB     RAIN      52  52 100 SW14      29.05R
$$
MIZ043>046-050>051-056>058-064>065-071>073-077>080-241400-
SOUTHWEST LOWER MICHIGAN

CITY           SKY/WX    TMP DP  RH WIND       PRES   REMARKS
BATTLE CREEK   LGT RAIN  52  49  89 SW12      29.09F
BENTON HARBOR  LGT RAIN  49  48  97 S6        29.08S FOG
BIG RAPIDS     LGT RAIN  47  47 100 SW8       29.02R
COLDWATER      CLOUDY    54  53  95 SW9       29.10F
FREMONT        DRIZZLE   45  45  98 SW7       29.03R
HOLLAND        CLOUDY    50  48  93 SW13      29.07S FOG
GRAND RAPIDS   LGT RAIN  50  49  96 SW9       29.07S
IONIA          LGT RAIN  51  49  96 SW12      29.06S
KALAMAZOO      CLOUDY    51  49  92 SW9       29.09F
LUDINGTON      FOG       44  43  97 SW6       29.02R VSB 3/4
MARSHALL       DRIZZLE   51  50  97 SW8       29.09F
MOUNT PLEASANT LGT RAIN  50  49  96 SW8       29.03R
MUSKEGON       LGT RAIN  47  44  90 SW9       29.06R FOG
SOUTH HAVEN    LGT RAIN  50  49  97 SW8       29.08R
$$
MIZ016>042-241400-
NORTHERN LOWER MICHIGAN

CITY           SKY/WX    TMP DP  RH WIND       PRES   REMARKS
ALPENA         CLOUDY    47  45  93 SW8       28.93R
BEAVER ISLAND  DRIZZLE   42  42  99 W9        28.93R
BELLAIRE       LGT RAIN  46  44  95 SW3       28.96R
CADILLAC       DRIZZLE   44  44 100 SW8       28.99R
CHARLEVOIX     DRIZZLE   45  45 100 SW12      28.96R
FRANKFORT      CLOUDY    45  44  99 SW5       28.99R FOG
GAYLORD        LGT RAIN  43  43 100 SW13      28.94R
GRAYLING       RAIN      48  48 100 SW7       28.97R
HARBOR SPRINGS LGT RAIN  43  43  99 W6        28.92R
HOUGHTON LAKE  LGT RAIN  46  44  93 SW12      28.99R
MANISTEE       CLOUDY    45  43  93 SW3       29.01R VSB 1/4
OSCODA         DRIZZLE   49  48  97 SW15      28.98R
PELLSTON       LGT RAIN  44  43  96 SW8       28.91R
ROGERS CITY    LGT RAIN  46  46 100 SW10      28.91R
TRAVERSE CITY  LGT RAIN  47  44  90 SW6       28.96R
$$
MIZ007>008-015-241400-
EASTERN UPPER MICHIGAN

CITY           SKY/WX    TMP DP  RH WIND       PRES   REMARKS
KINROSS        CLOUDY    39  39 100 CALM      28.88S VSB 1/4
MACKINAC ISLAN LGT RAIN  42  42 100 SW8       28.89R
NEWBERRY       LGT RAIN  38  38 100 NW5       28.91S VSB 1   WCI  35
S. S. MARIE    LGT RAIN  41  39  93 CALM      28.88S VSB 1/2
MUNISING         N/A     42  39  89 NW13      28.95R
$$
MIZ004>006-011>014-085-241400-
CENTRAL UPPER MICHIGAN

CITY           SKY/WX    TMP DP  RH WIND       PRES   REMARKS
MANISTIQUE     DRZL/FOG  39  39 100 W6        28.93S VSB 3/4 WCI  35
ESCANABA       CLOUDY    41  37  87 NW7       28.96S
MENOMINEE      CLOUDY    39  37  93 W3        28.99R
SAWYER-GWINN   LGT RAIN  37  37 100 NW8       28.97S WCI  31
$$
MIZ001>003-009>011-084-241400-
WESTERN UPPER MICHIGAN

CITY           SKY/WX    TMP DP  RH WIND       PRES   REMARKS
IRON MOUNTAIN  CLOUDY    39  38  96 NW8       28.99R WCI  33
HOUGHTON       LGT RAIN  33  31  92 N14G23    29.04S WCI  23
COPPER HARBOR    N/A     37  35  92 NE21G30   29.06R WCI  26
IRONWOOD       CLOUDY    34  34 100 NW10      29.11R WCI  26
$$

ABBREVIATIONS USED IN REMARKS
   TC - TEMPERATURE IN CELSIUS
  WCI - WIND CHILL INDEX
   HX - HEAT INDEX
  VSB - VISIBILITY



USA.gov is the U.S. government's official web portal to all federal, state and local government web resources and services.